Change the Weather History Date:

Sunday, September 8, 2013

  Actual Average Record
Temperature  
Mean Temperature 72 °F -  
Max Temperature 81 °F 74 °F 84 °F (2010)
Min Temperature 61 °F 55 °F 42 °F (2000)
Cooling Degree Days 6    
Growing Degree Days 22 (Base 50)    
Moisture  
Dew Point 56 °F    
Average Humidity 61    
Maximum Humidity 87    
Minimum Humidity 40    
Precipitation  
Precipitation 0.00 in - - ()
Sea Level Pressure  
Sea Level Pressure 29.89 in    
Wind  
Wind Speed 8 mph (WNW)    
Max Wind Speed 15 mph    
Max Gust Speed 24 mph    
Visibility 10 miles    
Events Rain    
Averages and records for this station are not official NWS values.
T = Trace of Precipitation, MM = Missing Value Source: NWS Daily Summary

Daily Weather History Graph

Daily Weather History Graph

Search for Another Location

Airport or City:

Trip Planner

Search our weather history database for the weather conditions in past years. The results will help you decide how hot, cold, wet, or windy it might be!

Date:

Astronomy

Sep. 08, 2013 Rise Set
Actual Time 6:24 AM EDT 7:10 PM EDT
Civil Twilight 5:56 AM EDT 7:38 PM EDT
Nautical Twilight 5:23 AM EDT 8:11 PM EDT
Astronomical Twilight 4:49 AM EDT 8:45 PM EDT
Moon 9:40 AM EDT (9/8) 8:42 PM EDT (9/8)
Length of Visible Light 13h 42m
Length of Day
12h 46m
Waxing Crescent, 11% of the Moon is Illuminated
Sep 8
Waxing Crescent
Sep 12
First Quarter
Sep 19
Full
Sep 26
Last Quarter
Oct 4
New

Hourly Weather History & Observations

Time (EDT) Temp. Heat Index Dew Point Humidity Pressure Visibility Wind Dir Wind Speed Gust Speed Precip Events Conditions
12:53 AM 68.0 °F - 61.0 °F 78% 29.92 in 10.0 mi SW 5.8 mph - 0.00 in Rain Light Rain
1:53 AM 68.0 °F - 63.0 °F 84% 29.89 in 10.0 mi SW 5.8 mph - 0.00 in   Mostly Cloudy
2:53 AM 68.0 °F - 62.1 °F 81% 29.88 in 10.0 mi WSW 6.9 mph - N/A   Overcast
3:53 AM 66.9 °F - 60.1 °F 79% 29.87 in 10.0 mi WSW 8.1 mph - N/A   Overcast
4:53 AM 66.9 °F - 60.1 °F 79% 29.84 in 10.0 mi SW 5.8 mph - N/A   Overcast
5:53 AM 64.9 °F - 60.1 °F 84% 29.84 in 10.0 mi WSW 8.1 mph - N/A   Clear
6:53 AM 64.9 °F - 61.0 °F 87% 29.84 in 10.0 mi WSW 3.5 mph - N/A   Clear
7:53 AM 66.9 °F - 62.1 °F 84% 29.85 in 10.0 mi WSW 5.8 mph - N/A   Partly Cloudy
8:53 AM 72.0 °F - 59.0 °F 64% 29.83 in 10.0 mi WSW 9.2 mph - N/A   Partly Cloudy
9:53 AM 73.9 °F - 59.0 °F 59% 29.83 in 10.0 mi WNW 10.4 mph - N/A   Clear
10:53 AM 77.0 °F - 61.0 °F 58% 29.82 in 10.0 mi WNW 11.5 mph - N/A   Clear
11:53 AM 79.0 °F - 60.1 °F 52% 29.82 in 10.0 mi NW 8.1 mph 16.1 mph N/A   Clear
12:53 PM 80.1 °F 80.7 °F 59.0 °F 48% 29.82 in 10.0 mi NW 15.0 mph 20.7 mph N/A   Clear
1:53 PM 79.0 °F - 60.1 °F 52% 29.83 in 10.0 mi NW 11.5 mph - N/A   Mostly Cloudy
2:53 PM 77.0 °F - 60.1 °F 56% 29.83 in 10.0 mi NNW 10.4 mph 19.6 mph N/A   Overcast
3:53 PM 78.1 °F - 57.9 °F 50% 29.85 in 10.0 mi NW 9.2 mph - N/A   Clear
4:53 PM 77.0 °F - 52.0 °F 42% 29.87 in 10.0 mi North 15.0 mph 24.2 mph N/A   Overcast
5:53 PM 75.9 °F - 50.0 °F 40% 29.89 in 10.0 mi North 8.1 mph - N/A   Clear
6:53 PM 71.1 °F - 48.9 °F 45% 29.93 in 10.0 mi North 8.1 mph - N/A   Clear
7:53 PM 66.9 °F - 45.0 °F 45% 29.97 in 10.0 mi North 8.1 mph - N/A   Clear
8:53 PM 64.9 °F - 46.0 °F 50% 30.01 in 10.0 mi North 8.1 mph - N/A   Clear
9:53 PM 64.9 °F - 43.0 °F 45% 30.05 in 10.0 mi NNE 11.5 mph - N/A   Clear
10:53 PM 63.0 °F - 42.1 °F 46% 30.08 in 10.0 mi NNE 10.4 mph - N/A   Clear
11:53 PM 61.0 °F - 42.1 °F 50% 30.09 in 10.0 mi NE 8.1 mph 17.3 mph N/A   Clear